Flag for U.S.A. Weather past 2 weeks in Lexington-Fayette, Kentucky, U.S.A.

59 °F

Light rain. Overcast.

Feels Like: 58 °F
Forecast: 56 / 61 °F
Wind: 8 mph from Southwest

Location: Blue Grass Airport

Current Time: Nov 28, 2015 at 11:56:53 AM

Latest Report: Nov 28, 2015 at 10:54 AM

Visibility: 10 mi

Pressure: 30.23 "Hg

Humidity: 84%

Dew point: 54 °F

Location of Lexington-FayetteLocation

Historic Weather in Lexington-Fayette — Graph


Lexington-Fayette temperature yesterday

Maximum temperature yesterday: 66 °F (at 2:54 PM)
Minimum temperature yesterday: 51 °F (at 1:54 AM)
Average temperature yesterday: 58 °F

Past Weeks' High & Low Weather Summary

High67 °F (Nov 18, 11:54 AM)93% (Nov 18, 1:54 PM)30.57 "Hg (Nov 18, 1:54 PM)
Low20 °F (Nov 23, 2:54 AM)22% (Nov 20, 12:54 PM)29.72 "Hg (Nov 18, 4:54 PM)
Average48 °F59%30.24 "Hg
* Reported Nov 13 9:54 AM — Nov 28 9:54 AM, Lexington-Fayette, Weather by CustomWeather, © 2015

Note: Actual official high and low records may vary slightly from our data, if they occured in-between our weather recording intervals... More about our weather records


Lexington-Fayette weather history for previous 24 hours

Time TempWeatherWind HumidityBarometerVisibility
9:54 AM
Sat, Nov 28
59 °FLight rain. Overcast.9 mph81%30.24 "Hg10 mi
8:54 AM58 °FOvercast.7 mph78%30.23 "Hg10 mi
7:54 AM58 °FOvercast.7 mph78%30.22 "Hg10 mi
6:54 AM57 °FMostly cloudy.8 mph81%30.21 "Hg10 mi
5:54 AM58 °FOvercast.8 mph78%30.21 "Hg10 mi
4:54 AM58 °FOvercast.9 mph78%30.20 "Hg10 mi
3:54 AM57 °FMostly cloudy.9 mph81%30.21 "Hg10 mi
2:54 AM57 °FOvercast.7 mph81%30.23 "Hg10 mi
1:54 AM56 °FLight rain. Mostly cloudy.7 mph84%30.24 "Hg10 mi
12:54 AM58 °FLight rain. Overcast.8 mph75%30.26 "Hg10 mi
11:54 PM
Fri, Nov 27
58 °FLight rain. Mostly cloudy.8 mph75%30.26 "Hg10 mi
10:54 PM58 °FLight rain. Overcast.7 mph75%30.27 "Hg10 mi
9:54 PM59 °FOvercast.6 mph72%30.28 "Hg10 mi
8:54 PM60 °FLight rain. Overcast.6 mph69%30.28 "Hg10 mi
7:54 PM61 °FOvercast.6 mph65%30.30 "Hg10 mi
6:54 PM61 °FPassing clouds.6 mph67%30.31 "Hg10 mi
5:54 PM61 °FPassing clouds.6 mph67%30.30 "Hg10 mi
4:54 PM63 °FPartly sunny.5 mph63%30.29 "Hg10 mi
3:54 PM65 °FSunny.8 mph59%30.31 "Hg10 mi
2:54 PM66 °FSunny.12 mph56%30.32 "Hg10 mi
1:54 PM65 °FSunny.10 mph59%30.34 "Hg10 mi
12:54 PM63 °FSunny.13 mph63%30.37 "Hg10 mi
11:54 AM62 °FSunny.14 mph62%30.40 "Hg10 mi
Weather by CustomWeather, © 2015

See weather overviewHow to use our weather pages